GFSGL_prec_pwat_336.txt.gz
Precipitable_Water
1.76 1.71 1.72 1.59 1.63 1.66 1.63 1.64 1.70 1.74 1.76 1.80 1.86 1.91 1.90 1.92 1.94 1.85 1.79 1.66 1.52 1.44 1.43 1.31 1.19 1.22 1.16 1.13 1.06 1.12 1.25 1.32 1.21 1.30 1.30 1.33 1.26 1.18 1.19 1.17 1.20 1.03 0.84
1.47 1.31 1.52 1.34 1.59 1.55 1.60 1.64 1.69 1.70 1.78 1.79 1.84 1.89 1.91 1.94 2.00 1.96 1.89 1.86 1.75 1.61 1.54 1.40 1.28 1.26 1.20 1.21 1.10 0.98 1.05 1.21 1.27 1.23 1.27 1.32 1.31 1.30 1.26 1.14 1.14 1.06 0.94
1.41 1.27 1.31 1.49 1.57 1.58 1.59 1.64 1.73 1.75 1.76 1.80 1.81 1.82 1.87 1.93 1.95 1.99 1.98 1.96 1.92 1.84 1.72 1.58 1.40 1.32 1.20 1.18 1.22 1.13 1.10 1.15 1.23 1.26 1.19 1.33 1.38 1.40 1.27 1.15 1.03 0.92 0.89
1.45 1.31 1.26 1.44 1.58 1.67 1.69 1.71 1.75 1.82 1.81 1.83 1.85 1.85 1.88 1.92 1.95 1.98 1.99 1.99 1.96 1.98 1.93 1.77 1.57 1.47 1.33 1.25 1.24 1.17 1.16 1.15 1.17 1.24 1.24 1.25 1.31 1.35 1.22 1.03 0.85 0.82 0.78
1.45 1.50 1.41 1.48 1.66 1.70 1.69 1.72 1.78 1.84 1.83 1.87 1.88 1.89 1.92 1.93 1.95 1.98 1.97 1.99 2.04 2.01 1.85 1.75 1.75 1.68 1.47 1.32 1.26 1.25 1.14 1.09 1.13 1.12 1.20 1.22 1.19 1.19 1.04 0.99 0.77 0.77 0.82
1.43 1.48 1.60 1.64 1.66 1.71 1.84 1.90 1.91 1.89 1.90 1.95 1.97 1.97 1.96 2.00 2.03 1.99 1.99 1.94 1.98 1.99 1.80 1.82 1.76 1.90 1.68 1.40 1.30 1.31 1.18 1.01 1.05 1.04 1.11 1.13 1.13 1.08 0.95 0.78 0.71 0.69 0.65
1.22 1.36 1.58 1.80 1.90 1.95 1.99 2.02 2.03 2.02 2.06 2.00 2.07 2.05 2.01 2.07 2.12 2.14 2.12 2.18 2.21 2.11 1.99 1.83 1.80 1.96 1.80 1.59 1.42 1.33 1.13 1.06 1.17 1.18 1.10 1.07 0.97 0.89 0.80 0.64 0.67 0.71 0.70
1.10 1.17 1.25 1.34 1.39 1.45 1.48 1.58 1.73 1.90 1.99 2.06 2.07 2.07 2.05 2.09 2.15 2.18 2.31 2.30 2.00 1.69 1.91 1.80 1.76 1.76 1.71 1.70 1.57 1.45 1.11 1.10 1.20 1.20 1.19 1.13 1.07 0.97 0.83 0.73 0.76 0.78 0.78
0.98 1.05 1.10 1.10 1.07 1.09 1.10 1.20 1.32 1.38 1.46 1.59 1.78 1.91 2.02 2.07 2.09 2.07 2.15 2.08 1.92 1.86 1.89 1.80 1.77 1.66 1.86 1.78 1.61 1.53 1.20 1.17 1.24 1.28 1.36 1.32 1.16 1.02 0.92 0.83 0.73 0.65 0.56
1.05 1.02 1.05 1.03 0.97 0.92 0.92 0.94 1.04 1.11 1.14 1.31 1.39 1.52 1.60 1.67 1.82 1.84 1.88 1.84 1.78 1.83 1.82 1.82 1.79 1.71 1.79 1.84 1.67 1.54 1.29 1.14 1.17 1.16 1.29 1.30 1.19 1.07 1.00 0.91 0.79 0.68 0.68
1.16 1.18 1.15 1.08 1.02 1.04 1.06 1.05 1.01 1.00 0.99 1.03 1.09 1.17 1.26 1.41 1.49 1.51 1.60 1.62 1.63 1.62 1.63 1.68 1.79 1.70 1.72 1.82 1.72 1.58 1.52 1.34 1.28 1.21 1.19 1.26 1.19 1.09 1.02 1.05 1.01 0.92 0.78
1.26 1.21 1.16 1.16 1.17 1.17 1.16 1.15 1.15 1.10 1.06 1.07 1.07 1.06 1.08 1.17 1.23 1.29 1.34 1.39 1.46 1.46 1.51 1.67 1.75 1.69 1.69 1.78 1.72 1.62 1.55 1.44 1.32 1.17 1.15 1.19 1.17 1.11 1.08 1.12 1.15 1.12 0.99
1.34 1.25 1.24 1.27 1.30 1.32 1.27 1.25 1.20 1.16 1.12 1.09 1.08 1.07 1.06 1.14 1.15 1.14 1.23 1.29 1.33 1.34 1.50 1.59 1.63 1.62 1.66 1.71 1.75 1.62 1.51 1.43 1.31 1.15 1.13 1.18 1.18 1.21 1.17 1.18 1.26 1.26 1.17
1.31 1.29 1.32 1.33 1.35 1.37 1.34 1.25 1.14 1.02 0.97 0.96 1.03 1.06 1.11 1.16 1.23 1.17 1.09 1.20 1.29 1.30 1.37 1.48 1.54 1.58 1.60 1.61 1.66 1.57 1.53 1.45 1.27 1.17 1.21 1.20 1.21 1.26 1.16 1.24 1.24 1.25 1.13
1.41 1.39 1.38 1.35 1.34 1.31 1.30 1.21 1.07 0.98 1.01 1.01 1.08 1.10 1.09 1.09 1.23 1.31 1.27 1.20 1.24 1.28 1.33 1.33 1.35 1.38 1.38 1.39 1.45 1.48 1.51 1.44 1.24 1.26 1.25 1.12 1.13 1.20 1.17 1.22 1.27 1.29 1.20
1.36 1.33 1.34 1.31 1.28 1.22 1.16 1.10 1.17 1.14 1.15 1.21 1.23 1.21 1.20 1.26 1.28 1.30 1.31 1.36 1.37 1.39 1.29 1.20 1.20 1.25 1.30 1.36 1.37 1.41 1.44 1.42 1.30 1.29 1.25 1.10 1.08 1.13 1.15 1.23 1.31 1.27 1.24
1.35 1.34 1.30 1.20 1.14 1.08 1.05 1.02 0.98 1.11 1.23 1.23 1.26 1.28 1.27 1.23 1.29 1.33 1.38 1.40 1.42 1.40 1.27 1.28 1.29 1.30 1.29 1.33 1.39 1.39 1.37 1.38 1.37 1.33 1.25 1.10 1.11 1.16 1.13 1.17 1.32 1.31 1.23
1.21 1.17 1.10 1.05 1.09 1.13 1.12 1.10 1.10 1.04 1.02 1.06 1.21 1.23 1.22 1.23 1.25 1.26 1.31 1.31 1.26 1.33 1.32 1.34 1.31 1.35 1.37 1.39 1.43 1.43 1.40 1.40 1.37 1.34 1.23 1.14 1.13 1.19 1.11 1.13 1.32 1.29 1.25
1.05 1.08 1.14 1.19 1.23 1.21 1.21 1.20 1.17 1.14 1.12 1.11 1.15 1.20 1.29 1.33 1.31 1.28 1.28 1.26 1.23 1.25 1.32 1.32 1.33 1.36 1.38 1.48 1.51 1.52 1.49 1.44 1.41 1.39 1.29 1.22 1.20 1.28 1.21 1.15 1.26 1.27 1.30
1.21 1.18 1.17 1.18 1.19 1.18 1.15 1.12 1.09 1.08 1.07 1.07 1.08 1.11 1.17 1.20 1.20 1.24 1.24 1.20 1.16 1.20 1.25 1.26 1.31 1.33 1.36 1.42 1.51 1.55 1.49 1.43 1.43 1.39 1.41 1.38 1.40 1.37 1.25 1.17 1.27 1.31 1.33
1.18 1.17 1.12 1.11 1.08 1.06 1.04 1.02 1.02 1.01 0.99 1.00 1.03 1.10 1.13 1.08 1.05 1.10 1.11 1.17 1.18 1.18 1.25 1.27 1.29 1.33 1.37 1.40 1.45 1.47 1.46 1.49 1.44 1.48 1.45 1.50 1.48 1.37 1.29 1.25 1.34 1.38 1.38
1.04 1.01 1.00 0.99 1.01 1.00 0.97 0.99 0.99 0.98 0.96 0.95 0.96 1.00 1.04 1.07 1.10 1.10 1.11 1.09 1.09 1.17 1.22 1.27 1.30 1.31 1.35 1.36 1.40 1.43 1.46 1.52 1.58 1.50 1.53 1.56 1.55 1.45 1.30 1.30 1.32 1.37 1.33
1.04 1.03 1.05 1.05 1.04 1.03 1.02 1.02 1.00 0.98 0.97 0.97 0.97 0.96 1.01 1.04 1.10 1.15 1.19 1.21 1.20 1.21 1.27 1.24 1.22 1.29 1.38 1.41 1.43 1.48 1.47 1.46 1.51 1.57 1.50 1.51 1.53 1.50 1.35 1.31 1.36 1.35 1.30
1.09 1.06 1.04 1.03 1.04 1.00 0.98 0.95 0.97 0.97 0.97 0.97 0.97 0.99 1.01 1.09 1.15 1.22 1.27 1.29 1.26 1.29 1.37 1.40 1.34 1.33 1.42 1.43 1.45 1.49 1.59 1.62 1.60 1.54 1.52 1.52 1.54 1.57 1.48 1.38 1.34 1.43 1.36
1.09 1.06 1.03 1.00 0.98 0.96 0.95 0.96 0.98 0.99 1.01 1.02 1.02 1.03 1.06 1.12 1.20 1.26 1.40 1.40 1.36 1.38 1.43 1.48 1.50 1.48 1.50 1.50 1.46 1.50 1.60 1.63 1.66 1.65 1.54 1.49 1.49 1.50 1.48 1.40 1.38 1.41 1.39
1.09 1.05 1.00 1.00 0.99 0.99 0.98 0.98 0.99 1.02 1.03 1.05 1.06 1.06 1.09 1.12 1.20 1.27 1.42 1.50 1.46 1.49 1.47 1.52 1.57 1.58 1.58 1.60 1.57 1.60 1.65 1.62 1.63 1.63 1.61 1.54 1.45 1.42 1.45 1.40 1.42 1.41 1.35

GFSGL_prec_pwat_339.txt.gz
Precipitable_Water
1.64 1.60 1.73 1.80 1.70 1.66 1.65 1.63 1.69 1.73 1.75 1.78 1.86 1.91 1.93 1.94 2.00 1.95 1.87 1.84 1.68 1.51 1.47 1.40 1.25 1.26 1.20 1.22 1.19 1.20 1.23 1.28 1.22 1.41 1.49 1.47 1.35 1.26 1.19 1.21 1.21 1.11 1.01
1.68 1.63 1.58 1.77 1.76 1.64 1.63 1.65 1.73 1.71 1.80 1.79 1.82 1.85 1.89 1.93 1.97 1.97 1.93 1.90 1.85 1.75 1.66 1.56 1.43 1.35 1.23 1.22 1.20 1.12 1.04 1.20 1.19 1.31 1.41 1.38 1.35 1.35 1.31 1.20 1.28 1.26 1.24
1.58 1.40 1.28 1.46 1.51 1.51 1.66 1.70 1.76 1.76 1.80 1.86 1.87 1.84 1.87 1.93 1.97 2.00 2.00 1.99 1.95 1.92 1.89 1.84 1.71 1.56 1.44 1.32 1.23 1.17 1.13 1.13 1.18 1.34 1.30 1.40 1.36 1.38 1.38 1.37 1.29 1.22 1.18
1.55 1.43 1.26 1.23 1.47 1.62 1.74 1.74 1.79 1.84 1.86 1.93 1.94 1.92 1.91 1.95 1.98 1.99 2.01 2.01 2.04 2.03 2.02 1.99 1.92 1.72 1.64 1.60 1.38 1.26 1.25 1.25 1.22 1.22 1.30 1.31 1.29 1.36 1.38 1.28 1.18 1.15 0.96
1.56 1.51 1.39 1.42 1.49 1.57 1.73 1.85 1.88 1.84 1.85 1.90 1.92 1.95 1.95 1.94 1.97 1.98 1.98 1.99 1.95 1.99 2.13 2.17 2.11 1.93 1.83 1.83 1.67 1.38 1.28 1.22 1.25 1.21 1.21 1.28 1.27 1.33 1.21 1.26 1.15 1.05 0.95
1.49 1.51 1.59 1.59 1.56 1.62 1.72 1.78 1.84 1.87 1.92 1.95 1.94 1.95 1.98 2.02 2.06 2.08 2.13 2.13 2.33 2.16 2.06 2.09 2.05 1.93 1.91 1.83 1.79 1.58 1.42 1.35 1.21 1.23 1.22 1.23 1.29 1.32 1.29 1.20 1.08 0.88 0.78
1.40 1.40 1.51 1.66 1.78 1.91 2.01 2.06 2.06 2.09 2.15 2.10 2.11 2.12 2.09 2.07 2.14 2.13 2.22 2.37 2.27 2.27 1.78 1.83 1.71 1.93 1.93 1.89 1.96 1.47 1.39 1.44 1.32 1.24 1.17 1.24 1.27 1.24 1.16 0.94 0.89 0.83 0.72
1.35 1.30 1.35 1.41 1.43 1.49 1.49 1.49 1.53 1.59 1.66 1.73 1.88 2.00 2.11 2.23 2.28 2.22 2.21 2.14 2.10 1.90 1.80 1.63 1.64 1.66 1.82 1.83 1.77 1.56 1.42 1.42 1.27 1.15 1.18 1.34 1.39 1.33 1.17 1.01 0.87 0.89 0.87
1.00 0.99 1.03 1.04 1.01 1.00 0.96 0.97 1.03 1.07 1.12 1.16 1.23 1.35 1.43 1.62 1.83 1.93 2.04 1.99 1.88 1.80 1.72 1.63 1.64 1.67 1.75 1.74 1.67 1.63 1.54 1.52 1.37 1.29 1.34 1.37 1.37 1.35 1.23 1.03 0.85 0.79 0.74
1.11 1.10 1.13 1.09 1.03 1.00 1.01 1.02 1.07 1.09 1.05 1.04 1.11 1.15 1.19 1.20 1.38 1.44 1.65 1.67 1.59 1.56 1.60 1.64 1.60 1.65 1.69 1.66 1.55 1.64 1.54 1.47 1.41 1.22 1.23 1.29 1.31 1.30 1.18 1.04 0.99 0.89 0.85
1.19 1.21 1.20 1.18 1.15 1.20 1.23 1.24 1.22 1.21 1.18 1.15 1.11 1.16 1.19 1.25 1.20 1.23 1.37 1.39 1.34 1.36 1.42 1.53 1.62 1.67 1.57 1.63 1.50 1.53 1.63 1.57 1.49 1.37 1.18 1.28 1.31 1.24 1.14 1.07 1.08 0.96 0.93
1.36 1.29 1.25 1.24 1.26 1.29 1.30 1.33 1.36 1.34 1.31 1.24 1.25 1.26 1.33 1.34 1.37 1.27 1.21 1.35 1.38 1.28 1.24 1.35 1.52 1.59 1.55 1.51 1.47 1.45 1.62 1.57 1.47 1.38 1.25 1.20 1.25 1.16 1.14 1.09 1.09 1.08 1.24
1.52 1.41 1.31 1.34 1.36 1.40 1.37 1.39 1.39 1.36 1.31 1.14 0.93 0.93 1.09 1.20 1.38 1.43 1.34 1.13 1.26 1.27 1.33 1.35 1.43 1.52 1.63 1.61 1.56 1.48 1.56 1.52 1.44 1.38 1.29 1.26 1.29 1.24 1.22 1.16 1.16 1.19 1.35
1.67 1.54 1.49 1.50 1.49 1.47 1.47 1.39 1.32 1.25 1.15 1.03 0.85 0.96 1.10 1.19 1.24 1.49 1.50 1.34 1.16 1.21 1.27 1.32 1.38 1.43 1.50 1.57 1.58 1.52 1.55 1.51 1.48 1.39 1.35 1.33 1.34 1.26 1.17 1.21 1.14 1.19 1.17
1.53 1.51 1.51 1.47 1.48 1.41 1.38 1.34 1.24 1.20 1.16 1.04 0.99 1.02 1.04 1.08 1.21 1.38 1.36 1.40 1.46 1.40 1.30 1.34 1.30 1.26 1.27 1.35 1.46 1.51 1.55 1.50 1.47 1.44 1.36 1.32 1.37 1.29 1.19 1.19 1.17 1.20 1.09
1.54 1.47 1.49 1.45 1.39 1.31 1.21 1.14 1.17 1.20 1.25 1.23 1.22 1.21 1.20 1.27 1.27 1.24 1.23 1.26 1.33 1.38 1.29 1.22 1.19 1.25 1.27 1.31 1.34 1.44 1.51 1.50 1.48 1.49 1.39 1.35 1.39 1.33 1.20 1.14 1.19 1.22 1.17
1.43 1.42 1.38 1.26 1.15 1.08 1.04 1.10 1.10 1.19 1.28 1.30 1.32 1.32 1.32 1.28 1.25 1.22 1.26 1.32 1.37 1.38 1.24 1.22 1.21 1.22 1.24 1.30 1.35 1.36 1.35 1.47 1.53 1.50 1.40 1.41 1.44 1.38 1.21 1.10 1.12 1.20 1.14
1.26 1.19 1.18 1.06 1.04 1.13 1.20 1.17 1.22 1.17 1.14 1.17 1.28 1.27 1.25 1.23 1.27 1.31 1.34 1.31 1.21 1.26 1.32 1.28 1.27 1.31 1.32 1.34 1.38 1.39 1.41 1.46 1.45 1.45 1.42 1.39 1.40 1.39 1.22 1.12 1.11 1.17 1.15
1.08 1.07 1.08 1.13 1.19 1.19 1.20 1.17 1.13 1.09 1.05 1.03 1.06 1.10 1.16 1.19 1.22 1.26 1.30 1.26 1.24 1.25 1.26 1.23 1.31 1.36 1.37 1.37 1.38 1.36 1.39 1.40 1.43 1.43 1.41 1.37 1.41 1.46 1.28 1.20 1.14 1.19 1.23
1.16 1.17 1.14 1.11 1.12 1.09 1.05 1.01 0.98 0.98 0.98 0.98 0.98 0.99 1.05 1.05 0.99 1.01 1.10 1.15 1.20 1.22 1.26 1.25 1.27 1.27 1.30 1.37 1.36 1.38 1.36 1.37 1.43 1.44 1.45 1.42 1.43 1.43 1.38 1.30 1.20 1.17 1.24
1.10 1.12 1.05 1.03 1.02 1.04 1.04 1.00 1.04 1.03 1.00 0.97 0.97 1.03 1.03 0.98 0.95 0.97 1.02 1.08 1.12 1.13 1.19 1.29 1.29 1.23 1.28 1.33 1.37 1.35 1.33 1.34 1.37 1.41 1.38 1.42 1.40 1.36 1.42 1.40 1.32 1.29 1.28
1.05 1.03 1.05 1.05 1.07 1.05 1.03 1.07 1.02 0.99 0.98 0.95 0.96 0.99 1.00 0.99 1.00 1.01 1.03 1.11 1.20 1.26 1.28 1.29 1.27 1.29 1.27 1.25 1.33 1.35 1.34 1.33 1.36 1.36 1.36 1.41 1.42 1.45 1.41 1.43 1.44 1.44 1.38
1.08 1.06 1.07 1.05 1.07 1.03 1.02 1.00 0.98 0.96 0.95 0.98 0.99 0.97 0.98 1.00 1.01 1.02 1.05 1.14 1.22 1.28 1.36 1.36 1.34 1.33 1.40 1.43 1.36 1.33 1.35 1.36 1.38 1.41 1.36 1.38 1.47 1.48 1.46 1.50 1.51 1.46 1.42
1.10 1.07 1.04 1.03 0.99 0.99 0.97 0.94 0.95 0.94 0.95 0.95 0.95 0.97 0.98 1.00 1.01 1.03 1.09 1.15 1.21 1.32 1.43 1.47 1.44 1.39 1.39 1.49 1.54 1.50 1.47 1.51 1.55 1.49 1.46 1.40 1.44 1.48 1.48 1.50 1.52 1.52 1.48
1.08 1.06 1.02 0.98 0.97 0.95 0.94 0.92 0.91 0.92 0.92 0.91 0.91 0.92 0.96 1.00 1.02 1.05 1.08 1.19 1.25 1.31 1.46 1.51 1.50 1.50 1.45 1.56 1.58 1.59 1.57 1.60 1.61 1.64 1.56 1.48 1.47 1.48 1.46 1.44 1.46 1.51 1.47
1.04 1.00 0.98 0.96 0.92 0.92 0.90 0.85 0.81 0.84 0.83 0.85 0.86 0.88 0.91 0.96 1.00 1.02 1.09 1.18 1.33 1.40 1.46 1.57 1.62 1.60 1.61 1.58 1.59 1.60 1.60 1.62 1.60 1.64 1.62 1.51 1.46 1.49 1.50 1.44 1.42 1.42 1.45

GFSGL_prec_pwat_342.txt.gz
Precipitable_Water
1.62 1.77 1.77 1.88 1.98 1.83 1.72 1.68 1.62 1.72 1.75 1.69 1.70 1.76 1.84 1.86 1.90 1.90 1.85 1.93 1.80 1.69 1.58 1.48 1.39 1.19 1.25 1.21 1.17 1.22 1.29 1.38 1.34 1.43 1.57 1.53 1.49 1.37 1.18 1.19 1.15 1.08 1.00
1.62 1.77 1.76 1.89 2.00 1.79 1.77 1.76 1.74 1.69 1.76 1.75 1.79 1.80 1.84 1.90 1.94 1.92 1.90 1.91 1.91 1.83 1.73 1.70 1.63 1.55 1.37 1.32 1.32 1.22 1.15 1.21 1.26 1.29 1.46 1.44 1.42 1.44 1.30 1.29 1.26 1.24 1.17
1.66 1.70 1.73 1.67 1.65 1.75 1.83 1.77 1.83 1.79 1.77 1.82 1.85 1.85 1.89 1.93 1.96 2.01 1.98 1.95 1.96 2.00 2.00 1.91 1.83 1.75 1.63 1.51 1.40 1.32 1.16 1.11 1.25 1.31 1.28 1.46 1.40 1.41 1.32 1.29 1.33 1.41 1.43
1.75 1.66 1.47 1.45 1.41 1.50 1.64 1.66 1.85 1.83 1.82 1.88 1.89 1.94 1.96 1.96 1.97 1.98 1.97 1.95 2.00 2.18 2.26 2.29 2.25 2.13 1.81 1.66 1.58 1.52 1.46 1.34 1.18 1.26 1.33 1.37 1.37 1.33 1.28 1.28 1.24 1.32 1.27
1.68 1.65 1.59 1.47 1.42 1.49 1.64 1.73 1.75 1.82 1.87 1.90 1.89 1.96 1.99 2.02 1.98 1.98 2.02 2.10 2.20 2.09 2.10 2.12 2.19 2.14 2.32 2.07 1.80 1.66 1.55 1.44 1.40 1.26 1.27 1.40 1.39 1.28 1.17 1.29 1.22 1.18 1.22
1.59 1.50 1.57 1.55 1.52 1.50 1.55 1.64 1.77 1.81 1.86 1.89 1.90 1.93 2.00 2.09 2.08 2.07 2.10 2.14 2.04 2.09 2.13 1.67 1.59 1.78 1.88 2.03 2.00 1.82 1.74 1.54 1.40 1.39 1.31 1.32 1.35 1.37 1.32 1.28 1.22 1.15 1.00
1.47 1.50 1.49 1.58 1.61 1.74 1.94 2.05 2.04 2.03 2.11 2.09 2.13 2.21 2.21 2.27 2.33 2.30 2.42 2.46 2.28 2.20 2.01 1.76 1.65 1.58 1.64 1.87 1.92 1.88 1.82 1.73 1.64 1.48 1.48 1.39 1.40 1.47 1.38 1.30 1.15 1.01 0.92
1.38 1.35 1.42 1.47 1.44 1.40 1.35 1.27 1.22 1.21 1.22 1.24 1.24 1.29 1.34 1.53 1.66 1.82 1.93 1.93 1.79 1.73 1.75 1.71 1.59 1.49 1.47 1.68 1.73 1.73 1.78 1.64 1.56 1.47 1.47 1.50 1.53 1.63 1.49 1.37 1.22 1.18 1.12
1.08 0.98 1.10 1.18 1.16 1.11 1.03 1.01 1.04 1.09 1.12 1.13 1.17 1.18 1.25 1.27 1.31 1.39 1.55 1.48 1.53 1.58 1.59 1.58 1.60 1.49 1.48 1.53 1.58 1.58 1.66 1.67 1.50 1.50 1.37 1.26 1.44 1.55 1.47 1.38 1.20 1.08 0.97
1.21 1.21 1.24 1.22 1.17 1.15 1.15 1.16 1.20 1.23 1.22 1.31 1.12 1.12 1.09 1.16 1.24 1.23 1.22 1.28 1.22 1.28 1.42 1.53 1.62 1.56 1.59 1.57 1.47 1.50 1.45 1.53 1.47 1.50 1.43 1.24 1.27 1.38 1.40 1.31 1.18 1.02 0.89
1.45 1.43 1.34 1.27 1.21 1.24 1.29 1.33 1.30 1.29 1.30 1.30 1.24 1.26 1.23 1.20 1.43 1.43 1.43 1.31 1.10 1.12 1.22 1.27 1.39 1.52 1.60 1.61 1.61 1.53 1.44 1.50 1.55 1.50 1.46 1.39 1.36 1.28 1.28 1.29 1.20 1.03 0.88
1.51 1.46 1.41 1.36 1.37 1.49 1.42 1.35 1.35 1.38 1.37 1.34 1.33 1.30 1.27 1.16 1.34 1.38 1.41 1.46 1.48 1.28 1.07 1.24 1.35 1.44 1.55 1.59 1.61 1.60 1.53 1.47 1.41 1.36 1.41 1.34 1.31 1.30 1.23 1.24 1.17 1.22 1.10
1.55 1.50 1.45 1.43 1.45 1.43 1.42 1.43 1.41 1.39 1.38 1.30 1.16 1.05 0.98 1.16 1.42 1.58 1.71 1.85 1.57 1.46 1.33 1.23 1.28 1.35 1.37 1.50 1.56 1.63 1.52 1.46 1.38 1.29 1.27 1.33 1.41 1.47 1.33 1.21 1.17 1.15 1.23
1.72 1.70 1.60 1.50 1.48 1.50 1.54 1.47 1.35 1.34 1.19 1.06 1.08 1.04 0.96 1.14 1.41 1.55 1.52 1.49 1.53 1.49 1.46 1.39 1.32 1.34 1.34 1.41 1.48 1.54 1.53 1.48 1.41 1.33 1.31 1.37 1.45 1.47 1.39 1.30 1.22 1.09 1.17
1.73 1.64 1.53 1.52 1.49 1.51 1.49 1.42 1.26 1.20 1.13 1.12 1.14 1.13 1.06 1.00 1.04 1.19 1.23 1.24 1.29 1.36 1.33 1.28 1.26 1.23 1.17 1.23 1.31 1.30 1.45 1.44 1.49 1.48 1.48 1.45 1.44 1.43 1.38 1.36 1.38 1.24 1.11
1.61 1.59 1.57 1.53 1.46 1.39 1.24 1.14 1.15 1.14 1.21 1.23 1.26 1.33 1.36 1.34 1.30 1.26 1.21 1.19 1.21 1.28 1.25 1.19 1.15 1.17 1.14 1.20 1.22 1.28 1.36 1.41 1.47 1.52 1.52 1.52 1.48 1.43 1.42 1.38 1.36 1.35 1.18
1.52 1.48 1.42 1.31 1.18 1.10 1.02 1.06 1.08 1.17 1.28 1.26 1.24 1.23 1.22 1.25 1.25 1.22 1.21 1.24 1.30 1.31 1.19 1.19 1.17 1.21 1.23 1.25 1.26 1.26 1.23 1.33 1.47 1.44 1.40 1.49 1.48 1.48 1.37 1.40 1.36 1.38 1.26
1.33 1.21 1.18 1.17 1.04 1.06 1.14 1.16 1.16 1.08 1.01 1.03 1.12 1.10 1.12 1.10 1.08 1.08 1.08 1.11 1.09 1.19 1.20 1.22 1.23 1.27 1.28 1.27 1.31 1.30 1.34 1.39 1.41 1.43 1.43 1.41 1.43 1.41 1.40 1.35 1.34 1.30 1.34
1.12 1.19 1.10 1.04 1.11 1.15 1.16 1.09 1.03 0.99 0.98 0.99 1.06 1.07 1.09 1.04 0.99 0.98 0.98 0.95 0.93 0.97 1.06 1.09 1.22 1.32 1.33 1.36 1.33 1.36 1.35 1.33 1.35 1.40 1.42 1.41 1.40 1.33 1.35 1.32 1.33 1.34 1.34
1.17 1.12 1.08 1.03 1.06 1.03 1.03 1.02 1.00 1.01 0.98 0.97 0.96 0.98 0.98 0.94 0.89 0.90 0.94 0.95 0.96 0.97 1.02 1.10 1.16 1.26 1.35 1.39 1.38 1.40 1.38 1.36 1.31 1.32 1.35 1.39 1.39 1.36 1.32 1.37 1.37 1.28 1.28
1.05 1.13 1.05 1.03 1.05 1.08 1.06 1.04 1.00 0.99 0.96 0.94 0.93 0.98 0.98 0.93 0.92 0.95 0.96 0.97 0.97 1.01 1.04 1.09 1.16 1.17 1.19 1.24 1.28 1.30 1.31 1.32 1.34 1.30 1.30 1.32 1.33 1.30 1.34 1.38 1.37 1.32 1.29
1.08 1.07 1.06 1.04 1.06 1.04 1.01 1.03 0.99 0.96 0.91 0.88 0.91 0.93 0.95 0.94 0.94 0.95 0.98 1.00 1.02 1.05 1.11 1.15 1.17 1.24 1.31 1.33 1.33 1.34 1.34 1.31 1.32 1.35 1.35 1.33 1.32 1.32 1.35 1.36 1.31 1.34 1.30
1.10 1.08 1.06 1.05 1.04 1.01 1.01 0.98 0.95 0.91 0.88 0.89 0.89 0.87 0.87 0.89 0.92 0.93 0.95 0.99 1.03 1.06 1.17 1.22 1.22 1.26 1.38 1.45 1.49 1.48 1.39 1.37 1.47 1.49 1.44 1.39 1.35 1.31 1.31 1.30 1.29 1.34 1.32
1.06 1.05 1.03 1.02 1.02 0.99 0.97 0.93 0.91 0.87 0.84 0.85 0.84 0.82 0.81 0.81 0.81 0.84 0.89 0.92 0.97 1.04 1.15 1.24 1.32 1.36 1.42 1.51 1.57 1.57 1.51 1.49 1.56 1.64 1.55 1.39 1.36 1.40 1.37 1.33 1.30 1.30 1.41
1.07 1.04 1.01 0.99 0.97 0.93 0.90 0.87 0.78 0.77 0.77 0.78 0.72 0.71 0.72 0.74 0.75 0.78 0.83 0.86 0.87 0.88 0.95 1.08 1.23 1.37 1.49 1.55 1.60 1.63 1.69 1.61 1.65 1.69 1.68 1.65 1.47 1.46 1.44 1.40 1.36 1.32 1.36
1.02 1.00 0.99 0.98 0.90 0.85 0.82 0.78 0.69 0.64 0.62 0.59 0.58 0.59 0.61 0.64 0.67 0.70 0.72 0.75 0.78 0.81 0.88 0.94 1.00 1.14 1.25 1.45 1.52 1.66 1.66 1.68 1.63 1.65 1.68 1.69 1.53 1.51 1.51 1.47 1.44 1.41 1.37

GFSGL_prec_pwat_345.txt.gz
Precipitable_Water
1.53 1.58 1.72 1.81 1.98 1.90 1.79 1.83 1.77 1.87 1.91 1.81 1.79 1.80 1.80 1.82 1.84 1.79 1.80 1.80 1.78 1.74 1.70 1.56 1.54 1.50 1.12 1.26 1.37 1.41 1.46 1.41 1.25 1.42 1.56 1.41 1.34 1.34 1.34 1.21 1.08 1.07 0.96
1.54 1.66 1.74 1.85 1.79 1.73 1.82 1.85 1.88 1.73 1.82 1.88 1.89 1.82 1.81 1.84 1.82 1.77 1.76 1.84 1.82 1.79 1.87 1.84 1.71 1.67 1.55 1.40 1.45 1.30 1.39 1.37 1.31 1.24 1.41 1.40 1.35 1.38 1.34 1.26 1.19 1.20 1.17
1.60 1.66 1.74 1.81 1.75 1.60 1.75 1.78 1.87 1.84 1.79 1.75 1.74 1.74 1.77 1.77 1.80 1.82 1.81 1.83 1.90 1.95 2.04 2.07 2.03 2.01 1.94 1.83 1.55 1.43 1.44 1.38 1.36 1.37 1.35 1.46 1.41 1.38 1.28 1.27 1.25 1.29 1.29
1.65 1.68 1.74 1.80 1.82 1.72 1.76 1.85 1.83 1.89 1.89 1.85 1.86 1.85 1.86 1.87 1.91 1.92 1.92 1.99 2.07 2.03 2.05 2.05 2.10 2.09 2.02 2.16 2.00 1.79 1.52 1.45 1.37 1.42 1.45 1.41 1.42 1.44 1.32 1.22 1.17 1.34 1.28
1.63 1.66 1.64 1.64 1.57 1.44 1.56 1.69 1.67 1.82 1.92 1.96 1.95 1.98 1.99 1.96 1.99 1.99 2.04 2.18 2.10 2.17 2.23 2.23 1.80 1.67 1.53 1.79 1.89 1.95 1.87 1.65 1.48 1.42 1.49 1.45 1.45 1.44 1.27 1.29 1.16 1.30 1.29
1.61 1.59 1.47 1.44 1.46 1.42 1.43 1.56 1.63 1.66 1.78 1.86 1.89 1.97 2.03 2.10 2.27 2.36 2.48 2.29 1.97 1.67 1.33 1.48 1.58 1.70 1.53 1.62 1.70 1.92 1.89 1.82 1.66 1.53 1.50 1.44 1.49 1.56 1.57 1.33 1.28 1.17 1.11
1.44 1.42 1.39 1.37 1.45 1.54 1.62 1.73 1.89 1.83 1.68 1.43 1.35 1.35 1.30 1.37 1.54 1.68 1.78 1.74 1.60 1.46 1.40 1.39 1.43 1.68 1.63 1.56 1.59 1.77 1.92 1.92 1.90 1.72 1.57 1.50 1.59 1.71 1.66 1.48 1.38 1.29 1.08
1.28 1.18 1.19 1.26 1.26 1.28 1.25 1.16 1.13 1.21 1.24 1.26 1.28 1.30 1.28 1.27 1.39 1.46 1.36 1.25 1.40 1.40 1.41 1.46 1.54 1.66 1.66 1.62 1.45 1.60 1.72 1.74 1.78 1.75 1.66 1.63 1.75 1.75 1.70 1.60 1.51 1.43 1.31
1.10 1.11 1.04 1.15 1.17 1.21 1.26 1.32 1.32 1.26 1.26 1.26 1.31 1.28 1.18 1.17 1.37 1.45 1.41 1.30 1.18 1.17 1.27 1.41 1.51 1.66 1.73 1.71 1.46 1.38 1.52 1.61 1.81 1.73 1.65 1.62 1.65 1.65 1.66 1.58 1.44 1.31 1.20
1.31 1.36 1.40 1.46 1.37 1.29 1.26 1.22 1.26 1.28 1.25 1.39 1.34 1.38 1.37 1.27 1.38 1.41 1.50 1.38 1.34 1.37 1.30 1.20 1.37 1.42 1.57 1.64 1.52 1.40 1.35 1.49 1.58 1.65 1.59 1.51 1.43 1.37 1.61 1.57 1.40 1.24 1.17
1.44 1.46 1.38 1.33 1.26 1.28 1.28 1.35 1.33 1.30 1.35 1.42 1.42 1.38 1.31 1.31 1.26 1.25 1.37 1.52 1.47 1.48 1.42 1.38 1.23 1.36 1.38 1.52 1.58 1.58 1.58 1.54 1.51 1.53 1.49 1.43 1.43 1.31 1.46 1.46 1.38 1.28 1.16
1.44 1.40 1.34 1.32 1.32 1.45 1.48 1.39 1.38 1.44 1.39 1.36 1.33 1.21 1.18 1.19 1.12 1.22 1.38 1.63 1.78 1.78 1.66 1.64 1.57 1.28 1.29 1.35 1.39 1.53 1.64 1.63 1.61 1.47 1.41 1.36 1.38 1.36 1.43 1.44 1.40 1.32 1.25
1.48 1.44 1.43 1.41 1.39 1.39 1.36 1.44 1.45 1.42 1.35 1.26 1.14 1.04 1.09 1.18 1.15 1.30 1.38 1.44 1.62 1.52 1.43 1.44 1.48 1.46 1.37 1.30 1.32 1.36 1.46 1.50 1.46 1.40 1.37 1.35 1.40 1.44 1.42 1.41 1.43 1.40 1.33
1.58 1.56 1.57 1.57 1.47 1.53 1.57 1.57 1.44 1.34 1.15 1.07 1.00 1.04 1.11 1.22 1.29 1.24 1.28 1.30 1.30 1.23 1.25 1.30 1.39 1.39 1.40 1.39 1.37 1.32 1.34 1.31 1.34 1.36 1.39 1.40 1.42 1.38 1.36 1.42 1.39 1.39 1.27
1.86 1.72 1.62 1.56 1.59 1.55 1.54 1.43 1.30 1.24 1.13 1.04 1.13 1.18 1.16 1.17 1.22 1.20 1.14 1.10 1.13 1.21 1.24 1.23 1.16 1.16 1.16 1.20 1.26 1.30 1.34 1.33 1.31 1.27 1.30 1.29 1.36 1.42 1.39 1.45 1.48 1.43 1.29
1.68 1.56 1.54 1.50 1.45 1.41 1.31 1.24 1.25 1.15 1.13 1.19 1.19 1.15 1.15 1.13 1.12 1.11 1.12 1.11 1.12 1.17 1.17 1.17 1.18 1.18 1.12 1.13 1.16 1.22 1.26 1.31 1.34 1.38 1.34 1.33 1.40 1.34 1.37 1.33 1.41 1.42 1.36
1.56 1.54 1.43 1.35 1.27 1.17 1.06 0.97 0.93 1.10 1.19 1.16 1.14 1.12 1.09 1.07 1.05 1.01 0.99 0.97 0.96 0.96 0.91 0.96 1.05 1.17 1.25 1.27 1.28 1.25 1.24 1.33 1.41 1.39 1.37 1.36 1.43 1.39 1.30 1.30 1.34 1.32 1.34
1.39 1.29 1.18 1.11 1.06 1.01 0.98 1.01 1.05 0.99 0.93 0.98 1.07 1.02 0.99 0.98 0.99 0.95 0.88 0.88 0.80 0.84 0.85 0.86 0.89 1.02 1.10 1.17 1.25 1.29 1.32 1.33 1.35 1.38 1.38 1.40 1.42 1.43 1.44 1.34 1.29 1.28 1.31
1.16 1.09 1.06 1.00 0.98 1.02 1.04 1.01 0.98 0.96 0.92 0.91 0.94 0.93 0.97 0.96 0.93 0.90 0.92 0.88 0.85 0.86 0.87 0.86 0.91 0.95 1.03 1.13 1.21 1.31 1.40 1.42 1.38 1.36 1.40 1.39 1.42 1.43 1.40 1.41 1.37 1.28 1.27
1.09 1.03 1.00 0.95 1.00 0.99 1.00 0.97 0.97 0.95 0.93 0.92 0.90 0.86 0.87 0.85 0.79 0.82 0.88 0.90 0.90 0.91 0.92 0.91 0.93 0.99 1.05 1.08 1.13 1.19 1.25 1.31 1.39 1.41 1.36 1.37 1.41 1.40 1.35 1.39 1.39 1.28 1.27
1.04 1.04 1.03 1.02 1.00 1.00 1.00 0.97 0.97 0.94 0.91 0.88 0.86 0.87 0.87 0.81 0.80 0.82 0.84 0.87 0.87 0.89 0.92 0.94 0.99 1.06 1.11 1.11 1.12 1.17 1.19 1.21 1.26 1.28 1.29 1.35 1.37 1.31 1.36 1.36 1.36 1.39 1.29
1.02 1.04 1.04 1.02 1.02 0.99 0.98 0.98 0.94 0.91 0.87 0.83 0.81 0.84 0.83 0.79 0.76 0.75 0.75 0.77 0.79 0.80 0.83 0.86 0.92 1.02 1.10 1.15 1.20 1.21 1.25 1.30 1.31 1.34 1.38 1.35 1.34 1.35 1.33 1.35 1.31 1.29 1.29
1.03 1.04 1.03 1.03 1.02 0.99 0.96 0.94 0.92 0.89 0.81 0.78 0.79 0.75 0.71 0.66 0.65 0.65 0.66 0.70 0.73 0.75 0.80 0.81 0.81 0.85 0.97 1.10 1.20 1.29 1.32 1.38 1.44 1.50 1.42 1.39 1.39 1.35 1.34 1.29 1.28 1.29 1.28
1.03 1.01 0.99 0.99 0.96 0.95 0.93 0.90 0.87 0.79 0.72 0.74 0.69 0.59 0.54 0.55 0.55 0.59 0.62 0.65 0.67 0.69 0.70 0.72 0.73 0.77 0.82 0.90 1.00 1.15 1.35 1.34 1.44 1.55 1.57 1.47 1.40 1.44 1.42 1.41 1.34 1.37 1.30
0.99 0.99 0.98 0.97 0.94 0.92 0.87 0.82 0.77 0.68 0.65 0.57 0.50 0.48 0.49 0.47 0.45 0.47 0.53 0.59 0.59 0.61 0.65 0.69 0.72 0.74 0.78 0.83 0.87 0.94 1.00 1.12 1.29 1.46 1.47 1.54 1.56 1.59 1.46 1.53 1.49 1.39 1.33
0.98 0.97 0.96 0.94 0.92 0.86 0.77 0.71 0.64 0.51 0.44 0.48 0.50 0.46 0.47 0.45 0.43 0.43 0.48 0.51 0.55 0.61 0.67 0.70 0.72 0.77 0.79 0.81 0.85 0.88 0.92 0.98 1.06 1.25 1.38 1.47 1.48 1.52 1.54 1.56 1.46 1.50 1.42